Regional Weather Roundup
Issued by NWS Portland, ME

Home | Current Version | Previous Version | Text Only | Print | Product List | Glossary On
Versions: 1 2 3 4 5 6 7 8 9 10 11 12 13 14 15 16 17 18 19 20 21 22 23 24 25 26 27 28 29 30 31 32 33 34 35 36 37 38 39 40 41 42 43 44 45 46 47 48 49 50
000
ASUS41 KGYX 261910
RWRGYX
WEATHER ROUNDUP FOR MAINE AND NEW HAMPSHIRE
NATIONAL WEATHER SERVICE GRAY ME
300 PM EDT WED JUL 26 2017

MEZ002-005-006-010-012-015-018-020-021-024-026-027-029-262000-
MAINE

CITY           SKY/WX    TMP DP  RH WIND       PRES   REMARKS
PORTLAND       SUNNY     77  50  38 S9        30.16S
SANFORD        MOSUNNY   77  53  43 S8        30.16F
WISCASSET      SUNNY     77  53  43 S8        30.17S
ROCKLAND       SUNNY     69  57  65 S8        30.16F
FRYEBURG       SUNNY     79  55  43 SW8       30.16S
LEWISTONAUBURN MOSUNNY   79  52  38 W6        30.15F
AUGUSTA        SUNNY     80  46  30 W6        30.15F
WATERVILLE     SUNNY     80  52  37 VRB3      30.12F
BANGOR         MOSUNNY   82  48  30 S9        30.13F
GREENVILLE       N/A    N/A N/A N/A S5        30.13F
MILLINOCKET    MOSUNNY   81  49  32 VRB3      30.12F
HOULTON        SUNNY     82  48  30 W6G17     30.08F
PRESQUE ISLE   SUNNY     80  46  30 S8        30.09F
FRENCHVILLE    SUNNY     78  44  29 VRB5      30.08F
CARIBOU        SUNNY     80  51  36 VRB6      30.08F
$$

NHZ002-005-008-009-011-012-014-262000-
NEW HAMPSHIRE

CITY           SKY/WX    TMP DP  RH WIND       PRES   REMARKS
PORTSMOUTH     MOSUNNY   79  54  42 SE9       30.15F
ROCHESTER      MOSUNNY   77  53  43 S5        30.16S
NASHUA         PTSUNNY   79  51  37 VRB3      30.17S
MANCHESTER     MOSUNNY   80  50  34 S6        30.15S
CONCORD        MOSUNNY   81  53  37 S8        30.16F
LACONIA        PTSUNNY   79  53  40 SW6       30.17S
PLYMOUTH       FAIR      77  53  43 S3        30.15F
BERLIN         SUNNY     80  51  36 W6        30.15F
WHITEFIELD     MOSUNNY   77  56  48 VRB7G17   30.16F
JAFFREY        MOSUNNY   76  53  44 VRB3      30.20S
KEENE          PTSUNNY   77  55  46 SW8       30.17F
LEBANON        SUNNY     80  50  34 SW12G20   30.15F
MT WASHINGTON  PTSUNNY   52  45  76 S10         N/A
$$

VTZ005-007-008-262000-
VERMONT

CITY           SKY/WX    TMP DP  RH WIND       PRES   REMARKS
ST JOHNSBURY     N/A     76  54  46 MISG      30.13F
MONTPELIER     PTSUNNY   73  58  59 SW6       30.20F
BURLINGTON     CLOUDY    78  56  46 S16       30.13F
$$

MAZ007-012-024-CTZ003-RIZ002-NYZ038-NYZ072-262000-
SOUTHERN NEW ENGLAND AND NY

CITY           SKY/WX    TMP DP  RH WIND       PRES   REMARKS
BOSTON         MOSUNNY   76  58  53 E9        30.17F
WORCESTER      SUNNY     74  50  42 SW5       30.20F
NANTUCKET      SUNNY     68  59  73 VRB7      30.20S
PROVIDENCE     MOSUNNY   78  59  51 SE10      30.18F
HARTFORD       MOSUNNY   80  56  43 CALM      30.18F
ALBANY         PTSUNNY   77  56  48 VRB7      30.16F
NEW YORK CITY  MOSUNNY   78  59  51 SW7       30.19F
$$

ANZ081-ANZ082-ANZ150-NHZ014-MEZ023>029-262000-
COASTAL MARINE OBSERVATIONS

STATION/POSITION TIME  TEMP    WIND        PRES    WAVE
                       AIR SEA DIR/SP/G            HT/PER
                 (UTC) (F)     (DEG/KT/KT) (MB)    (FT/S)
MOUNT DESERT ROC 1900   65                 1021.8F
MATINICUS ROCK   1800   63     150/  5/  6 1021.6F
ISLE OF SHOALS   1800   69     130/  8/  8 1021.7F
JEFFREYS LEDGE   1806      69                N/A     3/ 7
CASHES LEDGE BUO 1850   68 68              1021.8F   2/ 8
GEORGES BANK BUO 1750   62 60              1020.7    5/ 8
$$

.............KEY..............
   WCI - WIND CHILL
   TC  - TEMPERATURE IN CELSIUS
   VSB - VISIBILITY IN MILES
   HX  - HEAT INDEX
   FAIR- INDICATES FEW OR NO CLOUDS BELOW 12,000 FT, WITH NO
         SIGNIFICANT WEATHER AND/OR OBSTRUCTIONS TO VISIBILITY.





USA.gov is the U.S. government's official web portal to all federal, state and local government web resources and services.